Location: El Bakhil
(32.7726°N, 5.5387°W)
Time: 11:43:22
(UTC+00:00)

Delta 7925 Rocket - Pass Details

Date: 03 March 2021
Orbit: 645 x 1648 km, 26.3° (Epoch: 15 April)

Event Time Altitude Azimuth Distance (km) Brightness Sun altitude
Rises 19:36:28 0° 256° (WSW) 3,057 8.1 -16.6°
Reaches altitude 10° 19:39:03 10° 249° (WSW) 2,076 6.8 -17.2°
Maximum altitude 19:43:24 38° 181° (S) 981 4.0 -18.1°
Enters shadow 19:45:04 28° 137° (SE) 1,203 4.1 -18.4°
